ONEWEB-0688

operational
NORAD ID: 61596 Int'l Des: 2024-188 Owner: ONEWEBE Country: UK Constellation: oneweb
LEOCIRCULARPOLARONEWEB_TYPE

About ONEWEB-0688

Description loading...

Live Position

Loading 3D Globe...

Upcoming Passes

Altitude History

Altitude vs Time

uPlot chart will show altitude changes over time

Two-Line Element Set

1 61596U 24188C 25251.53626910 -.00000022 00000-0 -91136-4 0 9997
2 61596 87.9030 61.9382 0003028 84.3301 275.8176 13.17651102 48800
Epoch: Sep 8, 2025 • Age: 15 hours

Current Status

Altitude 1195.3 km
Velocity 7.26 km/s
Sub-Earth Point 22.57°N, 20.78°E
Launch Date Oct 20, 2024
Age 0.8 years
Type internet

Technical Details

Classification Payload
Mass 148.00 kg
Dry Mass 140.00 kg
Total Mass 148.00 kg
Length 1.30 m
Diameter 1.00 m
Span 5.00 m
Shape Trapezoid+2 pan
Manufacturer ONEWUS
Bus Type ARROW
Phase Status In Orbit
Owner/State ONEWEBE/UK

Large Constellations

Loading constellations...